Clinton, British Columbia

3:55 PM PDT on March 26, 2017 (GMT -0700)
Clinton

Weather History for CWCL - December, 2013

Change the Weather History Date:

Saturday, December 14, 2013

  Actual Average Record
Temperature  
Mean Temperature 26 °F -  
Max Temperature 31 °F 24 °F 39 °F (1997)
Min Temperature 22 °F 14 °F -18 °F (2008)
Degree Days  
Heating Degree Days 38    
Moisture  
Dew Point 24 °F    
Average Humidity 81    
Maximum Humidity 93    
Minimum Humidity 67    
Precipitation  
Precipitation 0.02 in - - ()
Sea Level Pressure  
Sea Level Pressure 30.10 in    
Wind  
Wind Speed 7 mph ()    
Max Wind Speed 10 mph    
Max Gust Speed 20 mph    
Visibility 7.1 miles    
Events      
Averages and records for this station are not official NWS values.
T = Trace of Precipitation, MM = Missing Value Source: Averaged Metar Reports

Daily Weather History Graph

Daily Weather History Graph

Search for Another Location

Airport or City:

Trip Planner

Search our weather history database for the weather conditions in past years. The results will help you decide how hot, cold, wet, or windy it might be!

Date:

Astronomy

Dec. 14, 2013 Rise Set
Actual Time 8:02 AM PST 3:58 PM PST
Civil Twilight 7:23 AM PST 4:38 PM PST
Nautical Twilight 6:40 AM PST 5:21 PM PST
Astronomical Twilight 6:00 AM PST 6:01 PM PST
Moon 2:35 PM PST (12/14) 5:16 AM PST (12/14)
Length of Visible Light 9h 15m
Length of Day
7h 55m
Waxing Gibbous, 94% of the Moon is Illuminated
Dec 14
Waxing Gibbous
Dec 17
Full
Dec 25
Last Quarter
Jan 1
New
Jan 7
First Quarter

Hourly Weather History & Observations

Time (PST) Temp. Windchill Dew Point Humidity Pressure Visibility Wind Dir Wind Speed Gust Speed Precip Events Conditions
12:00 AM 26.6 °F 20.0 °F 24.8 °F 93% 30.24 in 9.0 mi SSW 5.8 mph - N/A   Clear
1:00 AM 28 °F - 26 °F 90% 30.23 in 9 mi SSW 8.1 mph - -  
1:00 AM 28.4 °F 21.2 °F 26.6 °F 93% 30.23 in 9.0 mi SSW 6.9 mph - N/A   Clear
1:44 AM 26.6 °F 19.1 °F 24.8 °F 93% 30.10 in 6.0 mi SSW 6.9 mph - N/A   Mostly Cloudy
1:46 AM 26.6 °F 20.0 °F 24.8 °F 93% 30.10 in 6.0 mi SSW 5.8 mph - N/A   Partly Cloudy
2:00 AM 26.6 °F 19.1 °F 24.8 °F 93% 30.24 in 6.0 mi SSW 6.9 mph - N/A   Partly Cloudy
3:00 AM 28.4 °F 21.2 °F 26.6 °F 93% 30.27 in 9.0 mi SSW 6.9 mph - N/A   Clear
4:00 AM 29 °F - 27 °F 87% 30.26 in 9 mi South 5.8 mph - -  
4:00 AM 28.4 °F 23.3 °F 26.6 °F 93% 30.26 in 9.0 mi South 4.6 mph - N/A   Clear
5:00 AM 28.4 °F 21.2 °F 24.8 °F 86% 30.24 in 8.0 mi SSW 6.9 mph - N/A   Clear
6:00 AM 26.6 °F 17.5 °F 24.8 °F 93% 30.21 in 6.0 mi SSW 9.2 mph - N/A   Partly Cloudy
6:53 AM 26.6 °F 18.2 °F 23.0 °F 86% 30.06 in 6.0 mi South 8.1 mph - N/A   Mostly Cloudy
7:00 AM 27 °F - 23 °F 77% 30.20 in 5 mi SSW 6.9 mph - -   Overcast
7:00 AM 26.6 °F 19.1 °F 23.0 °F 86% 30.20 in 5.0 mi South 6.9 mph - N/A   Overcast
7:05 AM 26.6 °F 18.2 °F 23.0 °F 86% 30.05 in 5.0 mi South 8.1 mph - N/A   Overcast
7:24 AM 26.6 °F 17.5 °F 23.0 °F 86% 30.04 in 4.0 mi South 9.2 mph - N/A   Partly Cloudy
8:00 AM 26.6 °F 18.2 °F 23.0 °F 86% 30.18 in 6.0 mi SSW 8.1 mph - N/A   Partly Cloudy
8:11 AM 26.6 °F 16.8 °F 21.2 °F 80% 30.03 in 5.0 mi South 10.4 mph - N/A   Mostly Cloudy
8:26 AM 26.6 °F 18.2 °F 23.0 °F 86% 30.02 in 5.0 mi South 8.1 mph - N/A   Clear
9:00 AM 28.4 °F 19.1 °F 23.0 °F 80% 30.17 in 7.0 mi South 10.4 mph 18.4 mph N/A   Partly Cloudy
10:00 AM 28 °F - 23 °F 74% 30.16 in 7 mi South 6.9 mph - -  
10:00 AM 28.4 °F 20.4 °F 23.0 °F 80% 30.16 in 7.0 mi South 8.1 mph - N/A   Partly Cloudy
10:12 AM 28.4 °F 22.2 °F 23.0 °F 80% 30.03 in 7.0 mi SSW 5.8 mph - N/A   Mostly Cloudy
10:16 AM 28.4 °F 20.4 °F 23.0 °F 80% 30.03 in 6.0 mi SSW 8.1 mph - N/A   Overcast
10:21 AM 28.4 °F 20.4 °F 23.0 °F 80% 30.03 in 6.0 mi SSW 8.1 mph - N/A   Scattered Clouds
10:34 AM 28.4 °F 21.2 °F 23.0 °F 80% 30.02 in 5.0 mi South 6.9 mph - N/A   Mostly Cloudy
10:42 AM 28.4 °F 19.7 °F 23.0 °F 80% 30.02 in 5.0 mi SSW 9.2 mph - N/A   Partly Cloudy
10:52 AM 28.4 °F 20.4 °F 23.0 °F 80% 30.02 in 5.0 mi South 8.1 mph 17.3 mph N/A   Mostly Cloudy
10:57 AM 28.4 °F 21.2 °F 23.0 °F 80% 30.02 in 5.0 mi SSW 6.9 mph 17.3 mph N/A   Partly Cloudy
11:00 AM 28.4 °F 21.2 °F 23.0 °F 80% 30.16 in 5.0 mi SSW 6.9 mph 17.3 mph N/A   Partly Cloudy
11:05 AM 28.4 °F 20.4 °F 23.0 °F 80% 30.03 in 5.0 mi SSW 8.1 mph - N/A   Mostly Cloudy
11:13 AM 28.4 °F 22.2 °F 23.0 °F 80% 30.01 in 5.0 mi South 5.8 mph - N/A   Scattered Clouds
12:00 PM 30.2 °F 21.3 °F 26.6 °F 86% 30.14 in 9.0 mi South 10.4 mph 18.4 mph N/A   Partly Cloudy
1:00 PM 31 °F - 25 °F 72% 30.11 in 9 mi South 8.1 mph - -  
1:00 PM 32.0 °F 24.2 °F 24.8 °F 75% 30.11 in 9.0 mi South 9.2 mph - N/A   Scattered Clouds
2:00 PM 30.2 °F 22.6 °F 24.8 °F 80% 30.07 in 9.0 mi South 8.1 mph 19.6 mph N/A   Scattered Clouds
3:00 PM 30.2 °F - 24.8 °F 80% 30.06 in 9.0 mi SW 2.3 mph - N/A   Partly Cloudy
4:00 PM 30 °F - 23 °F 67% 30.07 in 9 mi SSW 8.1 mph - -  
4:00 PM 30.2 °F 21.3 °F 23.0 °F 75% 30.07 in 9.0 mi South 10.4 mph - N/A   Clear
5:00 PM 30.2 °F 21.9 °F 23.0 °F 75% 30.07 in 9.0 mi SSW 9.2 mph - N/A   Clear
6:00 PM 28.4 °F 20.4 °F 21.2 °F 74% 30.06 in 7.0 mi SSW 8.1 mph - N/A   Clear
6:25 PM 28.4 °F 21.2 °F 21.2 °F 74% 29.94 in 7.0 mi SSW 6.9 mph - N/A   Mostly Cloudy
6:27 PM 28.4 °F 22.2 °F 21.2 °F 74% 29.94 in 7.0 mi SSW 5.8 mph - N/A   Mostly Cloudy
6:33 PM 28.4 °F 21.2 °F 21.2 °F 74% 29.94 in 7.0 mi SSW 6.9 mph - N/A   Partly Cloudy
7:00 PM 29 °F - 22 °F 67% 30.06 in 7 mi SSW 6.9 mph - -  
7:00 PM 28.4 °F 23.3 °F 23.0 °F 80% 30.06 in 7.0 mi SSW 4.6 mph - N/A   Partly Cloudy
8:00 PM 28.4 °F - 21.2 °F 74% 30.07 in 9.0 mi Calm Calm - N/A   Clear
9:00 PM 28.4 °F 20.4 °F 23.0 °F 80% 30.07 in 9.0 mi SW 8.1 mph - N/A   Clear
10:00 PM 29 °F - 22 °F 68% 30.07 in 9 mi SSW 4.6 mph - -  
10:00 PM 30.2 °F 26.7 °F 23.0 °F 75% 30.07 in 9.0 mi SSW 3.5 mph - N/A   Clear
11:00 PM 30.2 °F 24.3 °F 23.0 °F 75% 30.06 in 9.0 mi SSW 5.8 mph 18.4 mph N/A   Clear